| time (UTC) | temp F | wind direction | speed MPH | gust MPH | rain 1hr in | rain 24hr in | rain mn in | humidity % | barometer mb |
| 20260901112520 | 67 | 222 | 0.0 | 0.0 | 0.00 | 0.00 | 0.01 | 76 | 1001.3 |
| 20260901112024 | 67 | 180 | 0.0 | 0.0 | 0.00 | 0.00 | 0.01 | 74 | 1001.3 |
| 20260901111602 | 68 | 274 | 1.0 | 0.0 | 0.00 | 0.00 | 0.01 | 76 | 1001.3 |
| 20260901111027 | 68 | 254 | 1.0 | 0.0 | 0.00 | 0.00 | 0.01 | 74 | 1001.1 |
| 20260901110526 | 69 | 256 | 0.0 | 0.0 | 0.00 | 0.00 | 0.01 | 73 | 1001.2 |
| 20260901110036 | 69 | 20 | 0.0 | 0.0 | 0.00 | 0.00 | 0.01 | 74 | 1001.2 |
| 20260901105538 | 69 | 276 | 0.0 | 0.0 | 0.00 | 0.00 | 0.01 | 72 | 1000.9 |
| 20260901105020 | 69 | 304 | 0.0 | 0.0 | 0.00 | 0.00 | 0.01 | 77 | 1000.9 |
| 20260901104532 | 68 | 226 | 1.0 | 0.0 | 0.00 | 0.00 | 0.01 | 77 | 1000.9 |
| 20260901104027 | 67 | 358 | 1.0 | 0.0 | 0.00 | 0.00 | 0.01 | 79 | 1000.9 |
| 20260901103545 | 67 | 205 | 2.0 | 0.0 | 0.00 | 0.00 | 0.01 | 78 | 1000.9 |
| 20260901103027 | 67 | 153 | 2.0 | 0.0 | 0.00 | 0.00 | 0.01 | 78 | 1000.9 |
| 20260901102525 | 67 | 249 | 2.0 | 0.0 | 0.00 | 0.00 | 0.01 | 76 | 1000.8 |
| 20260901102039 | 67 | 216 | 1.0 | 0.0 | 0.00 | 0.00 | 0.01 | 81 | 1000.8 |
| 20260901101521 | 65 | 205 | 0.0 | 0.0 | 0.00 | 0.00 | 0.01 | 85 | 1000.8 |
| 20260901101022 | 65 | 286 | 0.0 | 0.0 | 0.00 | 0.00 | 0.01 | 85 | 1000.9 |
| 20260901100559 | 65 | 212 | 1.0 | 0.0 | 0.00 | 0.00 | 0.01 | 86 | 1000.9 |
| 20260901100022 | 65 | 273 | 1.0 | 0.0 | 0.00 | 0.00 | 0.01 | 85 | 1000.9 |
| 20260901095551 | 65 | 288 | 0.0 | 0.0 | 0.00 | 0.00 | 0.01 | 87 | 1000.9 |
| 20260901095037 | 65 | 3 | 0.0 | 0.0 | 0.00 | 0.00 | 0.01 | 87 | 1000.9 |
| 20260901094533 | 64 | 201 | 0.0 | 0.0 | 0.00 | 0.00 | 0.01 | 87 | 1000.9 |
| 20260901094033 | 64 | 199 | 0.0 | 0.0 | 0.00 | 0.00 | 0.01 | 88 | 1000.8 |
| 20260901093549 | 65 | 214 | 0.0 | 0.0 | 0.00 | 0.00 | 0.01 | 88 | 1000.8 |
| 20260901093030 | 65 | 212 | 0.0 | 0.0 | 0.00 | 0.00 | 0.01 | 88 | 1000.8 |
| 20260901092546 | 65 | 230 | 0.0 | 0.0 | 0.00 | 0.00 | 0.01 | 88 | 1000.8 |
| 20260901092025 | 65 | 274 | 0.0 | 0.0 | 0.00 | 0.00 | 0.01 | 88 | 1000.8 |
| 20260901091531 | 65 | 206 | 1.0 | 0.0 | 0.00 | 0.00 | 0.01 | 88 | 1000.8 |
| 20260901091047 | 64 | 202 | 1.0 | 0.0 | 0.00 | 0.00 | 0.01 | 88 | 1000.7 |
| 20260901090533 | 65 | 240 | 1.0 | 0.0 | 0.00 | 0.00 | 0.01 | 89 | 1000.7 |
| 20260901090040 | 65 | 274 | 0.0 | 0.0 | 0.00 | 0.00 | 0.01 | 91 | 1000.7 |
| 20260901085527 | 64 | 236 | 0.0 | 0.0 | 0.00 | 0.00 | 0.01 | 92 | 1000.7 |
| 20260901085021 | 64 | 223 | 1.0 | 0.0 | 0.00 | 0.00 | 0.01 | 92 | 1000.7 |
| 20260901084538 | 64 | 278 | 1.0 | 0.0 | 0.00 | 0.00 | 0.01 | 94 | 1000.7 |
| 20260901084050 | 63 | 270 | 1.0 | 0.0 | 0.00 | 0.00 | 0.01 | 95 | 1000.8 |
| 20260901083529 | 63 | 247 | 0.0 | 0.0 | 0.00 | 0.00 | 0.01 | 96 | 1000.8 |
| 20260901083032 | 63 | 222 | 0.0 | 0.0 | 0.00 | 0.00 | 0.01 | 97 | 1000.8 |
| 20260901082532 | 63 | 212 | 0.0 | 0.0 | 0.00 | 0.00 | 0.01 | 98 | 1000.8 |
| 20260901082048 | 63 | 239 | 0.0 | 0.0 | 0.00 | 0.00 | 0.01 | 98 | 1000.8 |
| 20260901081529 | 62 | 243 | 0.0 | 0.0 | 0.00 | 0.00 | 0.01 | 99 | 1000.8 |
| 20260901081105 | 62 | 184 | 1.0 | 0.0 | 0.00 | 0.00 | 0.01 | 100 | 1000.8 |
| 20260901080533 | 62 | 226 | 1.0 | 0.0 | 0.00 | 0.00 | 0.01 | 100 | 1000.8 |
| 20260901080038 | 62 | 208 | 0.0 | 0.0 | 0.00 | 0.00 | 0.01 | 100 | 1000.8 |
| 20260901075549 | 62 | 266 | 0.0 | 0.0 | 0.00 | 0.00 | 0.01 | 100 | 1000.8 |
| 20260901075026 | 61 | 134 | 1.0 | 0.0 | 0.00 | 0.00 | 0.01 | 100 | 1000.8 |
| 20260901074525 | 61 | 190 | 0.0 | 0.0 | 0.00 | 0.00 | 0.01 | 100 | 1000.8 |
| 20260901074033 | 61 | 175 | 1.0 | 0.0 | 0.00 | 0.00 | 0.01 | 100 | 1000.9 |
| 20260901073537 | 61 | 140 | 0.0 | 0.0 | 0.00 | 0.00 | 0.01 | 100 | 1000.9 |
| 20260901073051 | 61 | 239 | 0.0 | 0.0 | 0.00 | 0.00 | 0.01 | 100 | 1000.9 |
| 20260901072527 | 61 | 230 | 0.0 | 0.0 | 0.00 | 0.00 | 0.01 | 100 | 1000.9 |
| 20260901072032 | 60 | 153 | 0.0 | 0.0 | 0.00 | 0.00 | 0.01 | 100 | 1000.9 |
| 20260901071545 | 60 | 191 | 0.0 | 0.0 | 0.00 | 0.00 | 0.01 | 100 | 1000.9 |
| 20260901071020 | 60 | 273 | 0.0 | 0.0 | 0.00 | 0.00 | 0.01 | 100 | 1000.8 |
| 20260901070525 | 60 | 198 | 0.0 | 0.0 | 0.00 | 0.00 | 0.01 | 100 | 1000.8 |
| 20260901070104 | 60 | 140 | 1.0 | 0.0 | 0.00 | 0.00 | 0.01 | 100 | 1000.8 |
| 20260901065527 | 60 | 212 | 1.0 | 0.0 | 0.00 | 0.00 | 0.01 | 100 | 1000.8 |
| 20260901065032 | 60 | 187 | 0.0 | 0.0 | 0.00 | 0.00 | 0.01 | 100 | 1000.8 |
| 20260901064536 | 60 | 219 | 1.0 | 0.0 | 0.00 | 0.00 | 0.01 | 100 | 1000.8 |
| 20260901064050 | 60 | 223 | 1.0 | 0.0 | 0.00 | 0.00 | 0.01 | 100 | 1000.8 |
| 20260901063530 | 60 | 74 | 0.0 | 0.0 | 0.00 | 0.00 | 0.01 | 100 | 1000.8 |
| 20260901063037 | 60 | 243 | 0.0 | 0.0 | 0.00 | 0.00 | 0.01 | 100 | 1000.8 |
| 20260901062545 | 60 | 243 | 0.0 | 0.0 | 0.00 | 0.00 | 0.01 | 100 | 1000.7 |
| 20260901062028 | 60 | 270 | 0.0 | 0.0 | 0.00 | 0.00 | 0.01 | 100 | 1000.7 |
| 20260901061530 | 60 | 205 | 0.0 | 0.0 | 0.00 | 0.00 | 0.01 | 100 | 1000.7 |
| 20260901061111 | 60 | 143 | 0.0 | 0.0 | 0.00 | 0.00 | 0.01 | 100 | 1000.7 |
| 20260901060537 | 60 | 209 | 0.0 | 0.0 | 0.00 | 0.00 | 0.01 | 100 | 1000.7 |
| 20260901060040 | 60 | 256 | 0.0 | 0.0 | 0.00 | 0.00 | 0.01 | 100 | 1000.7 |
| 20260901055533 | 60 | 182 | 0.0 | 0.0 | 0.00 | 0.00 | 0.01 | 100 | 1000.7 |
| 20260901055037 | 59 | 221 | 0.0 | 0.0 | 0.00 | 0.00 | 0.01 | 100 | 1000.7 |
| 20260901054528 | 59 | 205 | 0.0 | 0.0 | 0.00 | 0.00 | 0.01 | 100 | 1000.7 |
| 20260901054033 | 59 | 211 | 0.0 | 0.0 | 0.00 | 0.00 | 0.01 | 100 | 1000.7 |
| 20260901053539 | 59 | 139 | 0.0 | 0.0 | 0.00 | 0.00 | 0.01 | 100 | 1000.7 |
| 20260901053034 | 59 | 280 | 0.0 | 0.0 | 0.00 | 0.00 | 0.01 | 100 | 1000.7 |
| 20260901052537 | 59 | 228 | 0.0 | 0.0 | 0.00 | 0.00 | 0.01 | 100 | 1000.6 |
| 20260901052020 | 59 | 229 | 0.0 | 0.0 | 0.00 | 0.00 | 0.01 | 100 | 1000.6 |
| 20260901051547 | 59 | 235 | 0.0 | 0.0 | 0.00 | 0.00 | 0.01 | 100 | 1000.6 |
| 20260901051041 | 59 | 239 | 0.0 | 0.0 | 0.00 | 0.00 | 0.01 | 100 | 1000.4 |
| 20260901050523 | 59 | 232 | 0.0 | 0.0 | 0.00 | 0.00 | 0.01 | 100 | 1000.4 |
| 20260901050035 | 59 | 185 | 0.0 | 0.0 | 0.00 | 0.00 | 0.01 | 100 | 1000.4 |
| 20260901045520 | 59 | 236 | 0.0 | 0.0 | 0.00 | 0.00 | 0.01 | 100 | 1000.6 |
| 20260901045059 | 59 | 233 | 1.0 | 0.0 | 0.00 | 0.00 | 0.01 | 100 | 1000.6 |
| 20260901044541 | 58 | 144 | 1.0 | 0.0 | 0.00 | 0.00 | 0.01 | 100 | 1000.6 |
| 20260901044021 | 58 | 113 | 0.0 | 0.0 | 0.00 | 0.00 | 0.01 | 100 | 1000.7 |
| 20260901043529 | 58 | 239 | 0.0 | 0.0 | 0.00 | 0.00 | 0.01 | 100 | 1000.7 |
| 20260901043033 | 58 | 161 | 0.0 | 0.0 | 0.00 | 0.00 | 0.01 | 100 | 1000.7 |
| 20260901042520 | 58 | 173 | 0.0 | 0.0 | 0.00 | 0.00 | 0.01 | 100 | 1000.7 |
| 20260901042033 | 58 | 177 | 1.0 | 0.0 | 0.00 | 0.00 | 0.01 | 100 | 1000.7 |
| 20260901041526 | 58 | 144 | 1.0 | 0.0 | 0.00 | 0.00 | 0.01 | 100 | 1000.7 |
| 20260901041059 | 58 | 139 | 0.0 | 0.0 | 0.00 | 0.00 | 0.01 | 100 | 1000.7 |
| 20260901040532 | 58 | 129 | 0.0 | 0.0 | 0.00 | 0.00 | 0.01 | 100 | 1000.7 |
| 20260901040035 | 58 | 133 | 0.0 | 0.0 | 0.00 | 0.00 | 0.01 | 100 | 1000.7 |
| 20260901035526 | 58 | 164 | 0.0 | 0.0 | 0.00 | 0.00 | 0.01 | 100 | 1000.8 |
| 20260901035032 | 58 | 153 | 0.0 | 0.0 | 0.00 | 0.00 | 0.01 | 100 | 1000.8 |
| 20260901034548 | 58 | 153 | 0.0 | 0.0 | 0.00 | 0.00 | 0.01 | 100 | 1000.8 |
| 20260901034052 | 58 | 214 | 0.0 | 0.0 | 0.00 | 0.00 | 0.01 | 100 | 1000.8 |
| 20260901033537 | 58 | 242 | 0.0 | 0.0 | 0.00 | 0.00 | 0.01 | 100 | 1000.8 |
| 20260901033021 | 58 | 192 | 0.0 | 0.0 | 0.00 | 0.00 | 0.01 | 100 | 1000.8 |
| 20260901032530 | 57 | 192 | 0.0 | 0.0 | 0.00 | 0.00 | 0.01 | 100 | 1000.8 |
| 20260901032042 | 57 | 192 | 0.0 | 0.0 | 0.00 | 0.00 | 0.01 | 100 | 1000.8 |
| 20260901031534 | 57 | 192 | 0.0 | 0.0 | 0.00 | 0.00 | 0.01 | 100 | 1000.8 |
| 20260901031037 | 57 | 192 | 0.0 | 0.0 | 0.00 | 0.00 | 0.01 | 100 | 1000.9 |
| 20260901030524 | 57 | 192 | 0.0 | 0.0 | 0.00 | 0.00 | 0.01 | 100 | 1000.9 |
| 20260901030056 | 57 | 192 | 0.0 | 0.0 | 0.00 | 0.00 | 0.01 | 100 | 1000.9 |
| 20260901025541 | 57 | 192 | 0.0 | 0.0 | 0.00 | 0.00 | 0.01 | 100 | 1000.9 |
| 20260901025030 | 57 | 192 | 0.0 | 0.0 | 0.00 | 0.00 | 0.01 | 100 | 1000.9 |
| 20260901024606 | 57 | 192 | 0.0 | 0.0 | 0.00 | 0.00 | 0.01 | 100 | 1000.9 |
| 20260901024025 | 57 | 192 | 0.0 | 0.0 | 0.00 | 0.00 | 0.01 | 100 | 1000.8 |
| 20260901023530 | 57 | 192 | 0.0 | 0.0 | 0.00 | 0.00 | 0.01 | 100 | 1000.8 |
| 20260901023038 | 57 | 192 | 0.0 | 0.0 | 0.00 | 0.00 | 0.01 | 100 | 1000.8 |
| 20260901022522 | 57 | 192 | 0.0 | 0.0 | 0.00 | 0.00 | 0.01 | 100 | 1000.8 |
| 20260901022034 | 57 | 192 | 0.0 | 0.0 | 0.00 | 0.00 | 0.01 | 100 | 1000.8 |
| 20260901021539 | 57 | 192 | 0.0 | 0.0 | 0.00 | 0.00 | 0.01 | 100 | 1000.8 |
| 20260901021054 | 57 | 192 | 0.0 | 0.0 | 0.00 | 0.00 | 0.01 | 100 | 1000.9 |
| 20260901020533 | 57 | 192 | 0.0 | 0.0 | 0.00 | 0.00 | 0.01 | 100 | 1000.9 |
| 20260901020036 | 57 | 192 | 0.0 | 0.0 | 0.00 | 0.00 | 0.01 | 100 | 1000.9 |
| 20260901015546 | 57 | 192 | 0.0 | 0.0 | 0.00 | 0.00 | 0.01 | 100 | 1001.0 |
| 20260901015028 | 57 | 192 | 0.0 | 0.0 | 0.00 | 0.00 | 0.01 | 100 | 1001.0 |
| 20260901014532 | 57 | 192 | 0.0 | 0.0 | 0.00 | 0.00 | 0.01 | 100 | 1001.0 |
| 20260901014042 | 57 | 158 | 0.0 | 0.0 | 0.00 | 0.00 | 0.01 | 100 | 1001.1 |
| 20260901013526 | 57 | 235 | 0.0 | 0.0 | 0.00 | 0.00 | 0.01 | 100 | 1001.1 |
| 20260901013024 | 57 | 218 | 0.0 | 0.0 | 0.00 | 0.00 | 0.01 | 100 | 1001.1 |
| 20260901012533 | 57 | 218 | 0.0 | 0.0 | 0.00 | 0.00 | 0.01 | 100 | 1001.1 |
| 20260901012036 | 57 | 218 | 0.0 | 0.0 | 0.00 | 0.00 | 0.01 | 100 | 1001.1 |
| 20260901011532 | 58 | 215 | 0.0 | 0.0 | 0.00 | 0.00 | 0.01 | 100 | 1001.1 |
| 20260901011042 | 58 | 215 | 0.0 | 0.0 | 0.00 | 0.00 | 0.01 | 100 | 1001.2 |
| 20260901010528 | 58 | 215 | 0.0 | 0.0 | 0.00 | 0.00 | 0.01 | 100 | 1001.2 |
| 20260901010028 | 58 | 215 | 0.0 | 0.0 | 0.00 | 0.00 | 0.01 | 100 | 1001.2 |
| 20260901005541 | 58 | 209 | 0.0 | 0.0 | 0.00 | 0.00 | 0.01 | 100 | 1001.2 |
| 20260901005035 | 58 | 209 | 0.0 | 0.0 | 0.00 | 0.00 | 0.01 | 100 | 1001.2 |
| 20260901004537 | 58 | 209 | 0.0 | 0.0 | 0.00 | 0.00 | 0.01 | 100 | 1001.2 |
| 20260901004021 | 58 | 209 | 0.0 | 0.0 | 0.00 | 0.00 | 0.01 | 100 | 1001.2 |
| 20260901003536 | 58 | 209 | 0.0 | 0.0 | 0.00 | 0.00 | 0.01 | 100 | 1001.2 |
| 20260901003101 | 58 | 209 | 0.0 | 0.0 | 0.00 | 0.00 | 0.01 | 100 | 1001.2 |
| 20260901002554 | 58 | 233 | 0.0 | 0.0 | 0.00 | 0.00 | 0.01 | 100 | 1001.3 |
| 20260901002033 | 58 | 199 | 0.0 | 0.0 | 0.00 | 0.00 | 0.01 | 100 | 1001.3 |
| 20260901001521 | 58 | 221 | 0.0 | 0.0 | 0.00 | 0.00 | 0.01 | 100 | 1001.3 |
| 20260901001022 | 57 | 184 | 0.0 | 0.0 | 0.00 | 0.00 | 0.01 | 100 | 1001.3 |
| 20260901000538 | 57 | 206 | 0.0 | 0.0 | 0.00 | 0.00 | 0.01 | 100 | 1001.3 |
| 20260901000024 | 57 | 232 | 0.0 | 0.0 | 0.00 | 0.00 | 0.01 | 100 | 1001.3 |
| 20260831235529 | 57 | 232 | 0.0 | 0.0 | 0.00 | 0.00 | 0.01 | 100 | 1001.3 |
| 20260831235028 | 57 | 276 | 0.0 | 0.0 | 0.00 | 0.00 | 0.01 | 100 | 1001.3 |
| 20260831234523 | 57 | 276 | 0.0 | 0.0 | 0.00 | 0.00 | 0.01 | 100 | 1001.3 |
| 20260831234034 | 57 | 276 | 0.0 | 0.0 | 0.00 | 0.00 | 0.01 | 100 | 1001.3 |
| 20260831233537 | 57 | 276 | 0.0 | 0.0 | 0.00 | 0.00 | 0.01 | 100 | 1001.3 |
| 20260831233037 | 58 | 276 | 0.0 | 0.0 | 0.00 | 0.00 | 0.00 | 100 | 1001.3 |
| 20260831232548 | 58 | 276 | 0.0 | 0.0 | 0.00 | 0.00 | 0.00 | 100 | 1001.2 |
| 20260831232031 | 58 | 276 | 0.0 | 0.0 | 0.00 | 0.00 | 0.00 | 100 | 1001.2 |
| 20260831231540 | 58 | 276 | 0.0 | 0.0 | 0.00 | 0.00 | 0.00 | 100 | 1001.2 |
| 20260831231024 | 58 | 276 | 0.0 | 0.0 | 0.00 | 0.00 | 0.00 | 100 | 1001.3 |
| 20260831230612 | 58 | 276 | 0.0 | 0.0 | 0.00 | 0.00 | 0.00 | 100 | 1001.3 |
| 20260831225531 | 58 | 276 | 0.0 | 0.0 | 0.00 | 0.00 | 0.00 | 100 | 1001.2 |
| 20260831225033 | 58 | 276 | 0.0 | 0.0 | 0.00 | 0.00 | 0.00 | 100 | 1001.2 |
| 20260831224550 | 59 | 276 | 0.0 | 0.0 | 0.00 | 0.00 | 0.00 | 100 | 1001.2 |
| 20260831224027 | 59 | 276 | 0.0 | 0.0 | 0.00 | 0.00 | 0.00 | 100 | 1001.3 |
| 20260831223530 | 59 | 276 | 0.0 | 0.0 | 0.00 | 0.00 | 0.00 | 100 | 1001.3 |
| 20260831223025 | 59 | 276 | 0.0 | 0.0 | 0.00 | 0.00 | 0.00 | 100 | 1001.3 |
| 20260831222527 | 59 | 276 | 0.0 | 0.0 | 0.00 | 0.00 | 0.00 | 100 | 1001.4 |
| 20260831222028 | 59 | 276 | 0.0 | 0.0 | 0.00 | 0.00 | 0.00 | 100 | 1001.4 |
| 20260831221544 | 59 | 276 | 0.0 | 0.0 | 0.00 | 0.00 | 0.00 | 100 | 1001.4 |
| 20260831221029 | 59 | 276 | 0.0 | 0.0 | 0.00 | 0.00 | 0.00 | 100 | 1001.3 |
| 20260831220532 | 59 | 276 | 0.0 | 0.0 | 0.00 | 0.00 | 0.00 | 100 | 1001.3 |
| 20260831220049 | 59 | 281 | 0.0 | 0.0 | 0.00 | 0.00 | 0.00 | 100 | 1001.3 |
| 20260831215547 | 59 | 281 | 0.0 | 0.0 | 0.00 | 0.00 | 0.00 | 100 | 1001.2 |
| 20260831215040 | 59 | 260 | 0.0 | 0.0 | 0.00 | 0.00 | 0.00 | 100 | 1001.2 |
| 20260831214528 | 59 | 260 | 0.0 | 0.0 | 0.00 | 0.00 | 0.00 | 100 | 1001.2 |
| 20260831214021 | 59 | 295 | 0.0 | 0.0 | 0.00 | 0.00 | 0.00 | 100 | 1001.1 |
| 20260831213539 | 59 | 307 | 0.0 | 0.0 | 0.00 | 0.00 | 0.00 | 100 | 1001.1 |
| 20260831213020 | 60 | 341 | 0.0 | 0.0 | 0.00 | 0.00 | 0.00 | 100 | 1001.1 |
| 20260831212531 | 60 | 335 | 0.0 | 0.0 | 0.00 | 0.00 | 0.00 | 100 | 1001.0 |
| 20260831212058 | 60 | 332 | 0.0 | 0.0 | 0.00 | 0.00 | 0.00 | 100 | 1001.0 |
| 20260831211535 | 60 | 322 | 0.0 | 0.0 | 0.00 | 0.00 | 0.00 | 100 | 1001.0 |
| 20260831211037 | 60 | 304 | 0.0 | 0.0 | 0.00 | 0.00 | 0.00 | 100 | 1000.8 |
| 20260831210521 | 61 | 260 | 0.0 | 0.0 | 0.00 | 0.00 | 0.00 | 100 | 1000.8 |
| 20260831210101 | 61 | 225 | 0.0 | 0.0 | 0.00 | 0.00 | 0.50 | 100 | 1000.8 |
| 20260831205536 | 61 | 202 | 0.0 | 0.0 | 0.00 | 0.00 | 0.50 | 100 | 1000.7 |
| 20260831205038 | 61 | 314 | 0.0 | 0.0 | 0.00 | 0.00 | 0.50 | 100 | 1000.7 |
| 20260831204529 | 61 | 23 | 0.0 | 0.0 | 0.00 | 0.00 | 0.50 | 100 | 1000.7 |
| 20260831204031 | 61 | 204 | 0.0 | 0.0 | 0.00 | 0.00 | 0.50 | 100 | 1000.6 |
| 20260831203535 | 61 | 204 | 0.0 | 0.0 | 0.00 | 0.00 | 0.50 | 100 | 1000.6 |
| 20260831203026 | 61 | 250 | 0.0 | 0.0 | 0.00 | 0.00 | 0.50 | 100 | 1000.6 |
| 20260831202529 | 61 | 252 | 0.0 | 0.0 | 0.00 | 0.00 | 0.50 | 100 | 1000.6 |
| 20260831202035 | 61 | 221 | 0.0 | 0.0 | 0.00 | 0.00 | 0.50 | 100 | 1000.6 |
| 20260831201523 | 61 | 221 | 0.0 | 0.0 | 0.00 | 0.00 | 0.50 | 100 | 1000.6 |
| 20260831201028 | 61 | 264 | 0.0 | 0.0 | 0.00 | 0.00 | 0.50 | 100 | 1000.6 |
| 20260831200527 | 61 | 218 | 0.0 | 0.0 | 0.00 | 0.00 | 0.50 | 100 | 1000.6 |
| 20260831200041 | 61 | 218 | 0.0 | 0.0 | 0.00 | 0.00 | 0.50 | 100 | 1000.6 |
| 20260831195517 | 61 | 263 | 0.0 | 0.0 | 0.00 | 0.00 | 0.50 | 100 | 1000.5 |
| 20260831195055 | 62 | 215 | 0.0 | 0.0 | 0.00 | 0.00 | 0.50 | 100 | 1000.5 |
| 20260831194538 | 62 | 215 | 0.0 | 0.0 | 0.00 | 0.00 | 0.50 | 100 | 1000.5 |
| 20260831194021 | 62 | 215 | 0.0 | 0.0 | 0.00 | 0.00 | 0.50 | 100 | 1000.3 |
| 20260831193532 | 62 | 238 | 0.0 | 0.0 | 0.00 | 0.00 | 0.50 | 100 | 1000.3 |
| 20260831193035 | 62 | 204 | 0.0 | 0.0 | 0.00 | 0.00 | 0.50 | 100 | 1000.3 |
| 20260831192522 | 62 | 204 | 0.0 | 0.0 | 0.00 | 0.00 | 0.50 | 100 | 1000.2 |
| 20260831192024 | 62 | 238 | 0.0 | 0.0 | 0.00 | 0.00 | 0.50 | 100 | 1000.2 |
| 20260831191536 | 62 | 249 | 0.0 | 0.0 | 0.00 | 0.00 | 0.50 | 100 | 1000.2 |
| 20260831191037 | 62 | 197 | 0.0 | 0.0 | 0.00 | 0.00 | 0.50 | 100 | 1000.2 |
| 20260831190551 | 62 | 229 | 0.0 | 0.0 | 0.00 | 0.00 | 0.50 | 100 | 1000.2 |
| 20260831190032 | 62 | 266 | 0.0 | 0.0 | 0.00 | 0.00 | 0.50 | 100 | 1000.2 |
| 20260831185533 | 62 | 143 | 0.0 | 0.0 | 0.00 | 0.00 | 0.50 | 100 | 1000.1 |
| 20260831185048 | 62 | 142 | 0.0 | 0.0 | 0.00 | 0.00 | 0.50 | 100 | 1000.1 |
| 20260831184527 | 62 | 142 | 0.0 | 0.0 | 0.00 | 0.00 | 0.50 | 100 | 1000.1 |
| 20260831184036 | 62 | 142 | 0.0 | 0.0 | 0.00 | 0.00 | 0.50 | 100 | 999.9 |
| 20260831183547 | 62 | 142 | 0.0 | 0.0 | 0.00 | 0.00 | 0.50 | 100 | 999.9 |
| 20260831183027 | 61 | 142 | 0.0 | 0.0 | 0.00 | 0.00 | 0.50 | 99 | 999.9 |
| 20260831182529 | 61 | 142 | 0.0 | 0.0 | 0.00 | 0.00 | 0.50 | 98 | 999.8 |
| 20260831182040 | 61 | 142 | 0.0 | 0.0 | 0.00 | 0.00 | 0.48 | 98 | 999.8 |
| 20260831181540 | 61 | 142 | 0.0 | 0.0 | 0.00 | 0.00 | 0.48 | 97 | 999.8 |
| 20260831181026 | 61 | 142 | 0.0 | 0.0 | 0.00 | 0.00 | 0.48 | 97 | 999.9 |
| 20260831180529 | 61 | 142 | 0.0 | 0.0 | 0.00 | 0.00 | 0.48 | 97 | 999.9 |
| 20260831180047 | 61 | 142 | 0.0 | 0.0 | 0.00 | 0.00 | 0.48 | 97 | 999.9 |
| 20260831175531 | 61 | 142 | 0.0 | 0.0 | 0.00 | 0.00 | 0.48 | 97 | 999.8 |
| 20260831175038 | 62 | 142 | 0.0 | 0.0 | 0.00 | 0.00 | 0.48 | 97 | 999.8 |
| 20260831174523 | 62 | 142 | 0.0 | 0.0 | 0.00 | 0.00 | 0.48 | 97 | 999.8 |
| 20260831174039 | 62 | 142 | 0.0 | 0.0 | 0.00 | 0.00 | 0.48 | 96 | 999.7 |
| 20260831173525 | 62 | 142 | 0.0 | 0.0 | 0.00 | 0.00 | 0.48 | 96 | 999.7 |
| 20260831173049 | 62 | 142 | 0.0 | 0.0 | 0.00 | 0.00 | 0.48 | 96 | 999.7 |
| 20260831172541 | 62 | 142 | 0.0 | 0.0 | 0.00 | 0.00 | 0.48 | 96 | 999.7 |
| 20260831172026 | 62 | 142 | 0.0 | 0.0 | 0.00 | 0.00 | 0.48 | 96 | 999.7 |
| 20260831171532 | 62 | 142 | 0.0 | 0.0 | 0.00 | 0.00 | 0.48 | 96 | 999.7 |
| 20260831171047 | 63 | 142 | 0.0 | 0.0 | 0.00 | 0.00 | 0.48 | 96 | 999.6 |
| 20260831170529 | 63 | 142 | 0.0 | 0.0 | 0.00 | 0.00 | 0.48 | 96 | 999.6 |
| 20260831170049 | 63 | 142 | 0.0 | 0.0 | 0.00 | 0.00 | 0.48 | 96 | 999.6 |
| 20260831165548 | 63 | 142 | 0.0 | 0.0 | 0.00 | 0.00 | 0.48 | 96 | 999.5 |
| 20260831165029 | 64 | 142 | 0.0 | 0.0 | 0.00 | 0.00 | 0.48 | 96 | 999.5 |
| 20260831164523 | 64 | 142 | 0.0 | 0.0 | 0.00 | 0.00 | 0.48 | 96 | 999.5 |
| 20260831164037 | 64 | 142 | 0.0 | 0.0 | 0.00 | 0.00 | 0.48 | 96 | 999.4 |
| 20260831163525 | 64 | 142 | 0.0 | 0.0 | 0.00 | 0.00 | 0.48 | 96 | 999.4 |
| 20260831163033 | 64 | 142 | 0.0 | 0.0 | 0.00 | 0.00 | 0.48 | 96 | 999.4 |
| 20260831162542 | 64 | 142 | 0.0 | 0.0 | 0.00 | 0.00 | 0.48 | 96 | 999.3 |
| 20260831162026 | 65 | 142 | 0.0 | 0.0 | 0.00 | 0.00 | 0.48 | 96 | 999.3 |
| 20260831161542 | 65 | 142 | 0.0 | 0.0 | 0.00 | 0.00 | 0.48 | 96 | 999.3 |
| 20260831161027 | 65 | 142 | 0.0 | 0.0 | 0.00 | 0.00 | 0.48 | 96 | 999.3 |
| 20260831160533 | 65 | 142 | 0.0 | 0.0 | 0.00 | 0.00 | 0.48 | 96 | 999.3 |
| 20260831160040 | 65 | 133 | 0.0 | 0.0 | 0.00 | 0.00 | 0.48 | 96 | 999.3 |
| 20260831155554 | 65 | 133 | 0.0 | 0.0 | 0.00 | 0.00 | 0.48 | 96 | 999.2 |
| 20260831155040 | 65 | 133 | 0.0 | 0.0 | 0.00 | 0.00 | 0.48 | 96 | 999.2 |
| 20260831154557 | 65 | 133 | 0.0 | 0.0 | 0.00 | 0.00 | 0.48 | 96 | 999.2 |
| 20260831154041 | 65 | 139 | 0.0 | 0.0 | 0.00 | 0.00 | 0.48 | 96 | 999.3 |
| 20260831153527 | 65 | 106 | 0.0 | 0.0 | 0.00 | 0.00 | 0.48 | 96 | 999.3 |
| 20260831153033 | 65 | 139 | 0.0 | 0.0 | 0.00 | 0.00 | 0.48 | 96 | 999.3 |
| 20260831152547 | 65 | 119 | 1.0 | 0.0 | 0.00 | 0.00 | 0.48 | 95 | 999.5 |
| 20260831152030 | 65 | 161 | 1.0 | 0.0 | 0.00 | 0.00 | 0.48 | 95 | 999.5 |
| 20260831151537 | 65 | 149 | 0.0 | 0.0 | 0.00 | 0.00 | 0.48 | 95 | 999.5 |
| 20260831151022 | 65 | 153 | 0.0 | 0.0 | 0.00 | 0.00 | 0.48 | 95 | 999.6 |
| 20260831150529 | 65 | 168 | 0.0 | 0.0 | 0.00 | 0.00 | 0.48 | 95 | 999.6 |
| 20260831150045 | 65 | 108 | 0.0 | 0.0 | 0.00 | 0.00 | 0.48 | 96 | 999.6 |
| 20260831145531 | 65 | 154 | 0.0 | 0.0 | 0.00 | 0.00 | 0.48 | 95 | 999.6 |
| 20260831145042 | 65 | 137 | 0.0 | 0.0 | 0.00 | 0.00 | 0.48 | 95 | 999.6 |
| 20260831144527 | 65 | 137 | 0.0 | 0.0 | 0.00 | 0.00 | 0.48 | 95 | 999.6 |
| 20260831144032 | 65 | 139 | 0.0 | 0.0 | 0.00 | 0.00 | 0.48 | 95 | 999.6 |
| 20260831143546 | 65 | 139 | 0.0 | 0.0 | 0.00 | 0.00 | 0.48 | 96 | 999.6 |
| 20260831143030 | 65 | 139 | 0.0 | 0.0 | 0.00 | 0.00 | 0.48 | 96 | 999.6 |
| 20260831142538 | 65 | 74 | 0.0 | 0.0 | 0.00 | 0.00 | 0.48 | 96 | 999.5 |
| 20260831142051 | 65 | 74 | 0.0 | 0.0 | 0.00 | 0.00 | 0.48 | 96 | 999.5 |
| 20260831141535 | 65 | 74 | 0.0 | 0.0 | 0.00 | 0.00 | 0.48 | 96 | 999.5 |
| 20260831141041 | 65 | 51 | 0.0 | 0.0 | 0.00 | 0.00 | 0.48 | 96 | 999.7 |
| 20260831140531 | 65 | 317 | 0.0 | 0.0 | 0.00 | 0.00 | 0.48 | 96 | 999.7 |
| 20260831140025 | 65 | 317 | 0.0 | 0.0 | 0.00 | 0.00 | 0.48 | 96 | 999.7 |
| 20260831135526 | 65 | 317 | 0.0 | 0.0 | 0.00 | 0.00 | 0.47 | 96 | 999.7 |
| 20260831135033 | 64 | 317 | 0.0 | 0.0 | 0.00 | 0.00 | 0.47 | 96 | 999.7 |
| 20260831134543 | 64 | 317 | 0.0 | 0.0 | 0.00 | 0.00 | 0.46 | 95 | 999.7 |
| 20260831134024 | 64 | 317 | 0.0 | 0.0 | 0.00 | 0.00 | 0.46 | 96 | 999.6 |
| 20260831133534 | 65 | 317 | 0.0 | 0.0 | 0.00 | 0.00 | 0.46 | 96 | 999.6 |
| 20260831133034 | 65 | 317 | 0.0 | 0.0 | 0.00 | 0.00 | 0.46 | 96 | 999.6 |
| 20260831132537 | 64 | 317 | 0.0 | 0.0 | 0.00 | 0.00 | 0.46 | 96 | 999.6 |
| 20260831132041 | 64 | 317 | 0.0 | 0.0 | 0.00 | 0.00 | 0.46 | 95 | 999.6 |
| 20260831131526 | 64 | 317 | 0.0 | 0.0 | 0.00 | 0.00 | 0.46 | 95 | 999.6 |
| 20260831131020 | 64 | 317 | 0.0 | 0.0 | 0.00 | 0.00 | 0.46 | 94 | 999.7 |
| 20260831130527 | 64 | 317 | 0.0 | 0.0 | 0.00 | 0.00 | 0.46 | 93 | 999.7 |
| 20260831130045 | 64 | 317 | 0.0 | 0.0 | 0.00 | 0.00 | 0.45 | 92 | 999.7 |
| 20260831125529 | 65 | 317 | 0.0 | 0.0 | 0.00 | 0.00 | 0.44 | 91 | 999.6 |
| 20260831125029 | 65 | 317 | 0.0 | 0.0 | 0.00 | 0.00 | 0.44 | 90 | 999.6 |
| 20260831124528 | 65 | 317 | 0.0 | 0.0 | 0.00 | 0.00 | 0.39 | 89 | 999.6 |
| 20260831124054 | 66 | 317 | 0.0 | 0.0 | 0.00 | 0.00 | 0.26 | 88 | 999.3 |
| 20260831123550 | 66 | 202 | 0.0 | 0.0 | 0.00 | 0.00 | 0.12 | 87 | 999.3 |
| 20260831123029 | 67 | 264 | 0.0 | 0.0 | 0.00 | 0.00 | 0.10 | 88 | 999.3 |
| 20260831122544 | 67 | 243 | 0.0 | 0.0 | 0.00 | 0.00 | 0.09 | 87 | 999.2 |
| 20260831122027 | 68 | 209 | 0.0 | 0.0 | 0.00 | 0.00 | 0.09 | 88 | 999.3 |
| 20260831121530 | 68 | 136 | 0.0 | 0.0 | 0.00 | 0.00 | 0.09 | 88 | 999.3 |
| 20260831121047 | 68 | 164 | 0.0 | 0.0 | 0.00 | 0.00 | 0.09 | 89 | 999.3 |
| 20260831120526 | 67 | 259 | 0.0 | 0.0 | 0.00 | 0.00 | 0.09 | 91 | 999.2 |
| 20260831120032 | 67 | 259 | 0.0 | 0.0 | 0.00 | 0.00 | 0.09 | 92 | 999.2 |
| 20260831115544 | 67 | 259 | 0.0 | 0.0 | 0.00 | 0.00 | 0.09 | 92 | 999.2 |
| 20260831115029 | 67 | 259 | 0.0 | 0.0 | 0.00 | 0.00 | 0.09 | 93 | 999.2 |
| 20260831114533 | 67 | 33 | 0.0 | 0.0 | 0.00 | 0.00 | 0.09 | 94 | 999.2 |
| 20260831114050 | 67 | 123 | 0.0 | 0.0 | 0.00 | 0.00 | 0.09 | 94 | 999.3 |
| 20260831113533 | 66 | 85 | 0.0 | 0.0 | 0.00 | 0.00 | 0.09 | 95 | 999.3 |
| 20260831113041 | 66 | 223 | 0.0 | 0.0 | 0.00 | 0.00 | 0.09 | 96 | 999.3 |